Time,TemperatureF,DewpointF,PressureIn,WindDirection,WindDirectionDegrees,WindSpeedMPH,WindSpeedGustMPH,Humidity,HourlyPrecipIn,Conditions,Clouds,dailyrainin,SoftwareType,DateUTC
2013-01-23 00:03:00,31.0,28.0,30.26,NW,315,0.0,-999.0,87,-99.99,,,-99.99,,2013-01-23 05:03:00,
2013-01-23 00:12:00,31.0,28.0,30.26,NW,315,0.0,-999.0,87,-99.99,,,-99.99,,2013-01-23 05:12:00,
2013-01-23 00:22:00,30.0,27.0,30.26,NW,315,0.0,-999.0,87,-99.99,,,-99.99,,2013-01-23 05:22:00,
2013-01-23 00:33:00,30.0,27.0,30.27,NW,315,0.0,-999.0,87,-99.99,,,-99.99,,2013-01-23 05:33:00,
2013-01-23 00:43:00,30.0,27.0,30.27,NW,315,0.0,-999.0,87,-99.99,,,-99.99,,2013-01-23 05:43:00,
2013-01-23 00:52:00,30.0,27.0,30.26,NW,315,0.0,-999.0,88,-99.99,,,-99.99,,2013-01-23 05:52:00,
2013-01-23 01:03:00,30.0,27.0,30.27,NW,315,0.0,-999.0,89,-99.99,,,-99.99,,2013-01-23 06:03:00,
2013-01-23 01:13:00,30.0,27.0,30.27,NW,315,0.0,-999.0,89,-99.99,,,-99.99,,2013-01-23 06:13:00,
2013-01-23 01:22:00,30.0,27.0,30.26,NW,315,0.0,-999.0,90,-99.99,,,-99.99,,2013-01-23 06:22:00,
2013-01-23 01:33:00,29.0,26.0,30.26,NW,315,0.0,-999.0,90,-99.99,,,-99.99,,2013-01-23 06:33:00,
2013-01-23 01:43:00,29.0,26.0,30.26,NW,315,0.0,-999.0,90,-99.99,,,-99.99,,2013-01-23 06:43:00,
2013-01-23 01:52:00,29.0,26.0,30.26,NW,315,0.0,-999.0,90,-99.99,,,-99.99,,2013-01-23 06:52:00,
2013-01-23 02:02:00,29.0,27.0,30.26,NW,315,0.0,-999.0,91,-99.99,,,-99.99,,2013-01-23 07:02:00,
2013-01-23 02:13:00,29.0,27.0,30.26,NW,315,0.0,-999.0,91,-99.99,,,-99.99,,2013-01-23 07:13:00,
2013-01-23 02:22:00,29.0,27.0,30.26,NW,315,0.0,-999.0,91,-99.99,,,-99.99,,2013-01-23 07:22:00,
2013-01-23 02:33:00,29.0,27.0,30.27,NW,315,0.0,-999.0,91,-99.99,,,-99.99,,2013-01-23 07:33:00,
2013-01-23 02:43:00,29.0,27.0,30.27,NW,315,0.0,-999.0,91,-99.99,,,-99.99,,2013-01-23 07:43:00,
2013-01-23 02:52:00,29.0,27.0,30.27,NW,315,0.0,-999.0,91,-99.99,,,-99.99,,2013-01-23 07:52:00,
2013-01-23 03:02:00,30.0,27.0,30.27,NW,315,0.0,-999.0,90,-99.99,,,-99.99,,2013-01-23 08:02:00,
2013-01-23 03:13:00,30.0,27.0,30.27,NW,315,0.0,-999.0,90,-99.99,,,-99.99,,2013-01-23 08:13:00,
2013-01-23 03:23:00,29.0,25.0,30.28,NW,315,2.0,-999.0,86,-99.99,,,-99.99,,2013-01-23 08:23:00,
2013-01-23 03:33:00,29.0,24.0,30.28,NW,315,1.0,-999.0,81,-99.99,,,-99.99,,2013-01-23 08:33:00,
2013-01-23 03:43:00,29.0,24.0,30.28,NW,315,1.0,-999.0,81,-99.99,,,-99.99,,2013-01-23 08:43:00,
2013-01-23 03:52:00,29.0,23.0,30.28,NW,316,1.0,-999.0,77,-99.99,,,-99.99,,2013-01-23 08:52:00,
2013-01-23 04:03:00,29.0,21.0,30.28,NNW,337,2.0,-999.0,72,-99.99,,,-99.99,,2013-01-23 09:03:00,
2013-01-23 04:12:00,29.0,21.0,30.28,NNW,337,2.0,-999.0,72,-99.99,,,-99.99,,2013-01-23 09:12:00,
2013-01-23 04:22:00,29.0,20.0,30.29,NNE,31,2.0,-999.0,68,-99.99,,,-99.99,,2013-01-23 09:22:00,
2013-01-23 04:33:00,29.0,19.0,30.29,NNE,31,2.0,-999.0,66,-99.99,,,-99.99,,2013-01-23 09:33:00,
2013-01-23 04:43:00,29.0,19.0,30.29,NNE,31,2.0,-999.0,66,-99.99,,,-99.99,,2013-01-23 09:43:00,
2013-01-23 04:52:00,28.0,16.0,30.29,NE,41,3.0,-999.0,61,-99.99,,,-99.99,,2013-01-23 09:52:00,
2013-01-23 05:03:00,28.0,16.0,30.29,NE,41,2.0,-999.0,60,-99.99,,,-99.99,,2013-01-23 10:03:00,
2013-01-23 05:12:00,28.0,16.0,30.29,NE,41,2.0,-999.0,60,-99.99,,,-99.99,,2013-01-23 10:12:00,
2013-01-23 05:23:00,28.0,14.0,30.29,NE,54,3.0,-999.0,54,-99.99,,,-99.99,,2013-01-23 10:23:00,
2013-01-23 05:33:00,28.0,11.0,30.30,NE,56,3.0,-999.0,49,-99.99,,,-99.99,,2013-01-23 10:33:00,
2013-01-23 05:43:00,28.0,11.0,30.30,NE,56,3.0,-999.0,49,-99.99,,,-99.99,,2013-01-23 10:43:00,
2013-01-23 05:52:00,28.0,10.0,30.30,NE,51,2.0,-999.0,47,-99.99,,,-99.99,,2013-01-23 10:52:00,
2013-01-23 06:03:00,27.0,9.0,30.31,NE,52,2.0,-999.0,47,-99.99,,,-99.99,,2013-01-23 11:03:00,
2013-01-23 06:12:00,27.0,9.0,30.31,NE,52,2.0,-999.0,47,-99.99,,,-99.99,,2013-01-23 11:12:00,
2013-01-23 06:23:00,27.0,10.0,30.31,NE,52,1.0,-999.0,49,-99.99,,,-99.99,,2013-01-23 11:23:00,
2013-01-23 06:34:00,27.0,9.0,30.32,NE,51,2.0,-999.0,46,-99.99,,,-99.99,,2013-01-23 11:34:00,
2013-01-23 06:43:00,27.0,9.0,30.32,NE,51,2.0,-999.0,46,-99.99,,,-99.99,,2013-01-23 11:43:00,
2013-01-23 06:53:00,27.0,9.0,30.32,NE,51,2.0,-999.0,47,-99.99,,,-99.99,,2013-01-23 11:53:00,
2013-01-23 07:03:00,27.0,10.0,30.33,NE,51,1.0,-999.0,49,-99.99,,,-99.99,,2013-01-23 12:03:00,
2013-01-23 07:13:00,27.0,10.0,30.33,NE,51,1.0,-999.0,49,-99.99,,,-99.99,,2013-01-23 12:13:00,
2013-01-23 07:22:00,27.0,9.0,30.33,NE,51,1.0,-999.0,46,-99.99,,,-99.99,,2013-01-23 12:22:00,
2013-01-23 07:33:00,26.0,8.0,30.34,NE,51,1.0,-999.0,46,-99.99,,,-99.99,,2013-01-23 12:33:00,
2013-01-23 07:43:00,26.0,8.0,30.34,NE,51,1.0,-999.0,46,-99.99,,,-99.99,,2013-01-23 12:43:00,
2013-01-23 07:53:00,26.0,9.0,30.35,NE,51,1.0,-999.0,47,-99.99,,,-99.99,,2013-01-23 12:53:00,
2013-01-23 08:04:00,26.0,9.0,30.35,NE,51,1.0,-999.0,47,-99.99,,,-99.99,,2013-01-23 13:04:00,
2013-01-23 08:13:00,26.0,9.0,30.35,NE,51,1.0,-999.0,47,-99.99,,,-99.99,,2013-01-23 13:13:00,
2013-01-23 08:23:00,27.0,8.0,30.35,NE,51,1.0,-999.0,44,-99.99,,,-99.99,,2013-01-23 13:23:00,
2013-01-23 08:33:00,28.0,7.0,30.36,NE,51,2.0,-999.0,41,-99.99,,,-99.99,,2013-01-23 13:33:00,
2013-01-23 08:43:00,28.0,7.0,30.36,NE,51,2.0,-999.0,41,-99.99,,,-99.99,,2013-01-23 13:43:00,
2013-01-23 08:52:00,29.0,6.0,30.36,NE,41,3.0,-999.0,37,-99.99,,,-99.99,,2013-01-23 13:52:00,
2013-01-23 09:03:00,30.0,6.0,30.36,NE,40,3.0,-999.0,35,-99.99,,,-99.99,,2013-01-23 14:03:00,
2013-01-23 09:12:00,30.0,6.0,30.36,NE,40,3.0,-999.0,35,-99.99,,,-99.99,,2013-01-23 14:12:00,
2013-01-23 09:23:00,30.0,6.0,30.36,NE,40,3.0,-999.0,35,-99.99,,,-99.99,,2013-01-23 14:23:00,
2013-01-23 09:33:00,32.0,6.0,30.37,NNE,32,2.0,-999.0,33,-99.99,,,-99.99,,2013-01-23 14:33:00,
2013-01-23 09:43:00,32.0,6.0,30.37,NNE,32,2.0,-999.0,33,-99.99,,,-99.99,,2013-01-23 14:43:00,
2013-01-23 09:53:00,33.0,5.0,30.38,NE,49,3.0,-999.0,30,-99.99,,,-99.99,,2013-01-23 14:53:00,
2013-01-23 10:03:00,33.0,4.0,30.38,NE,52,4.0,-999.0,29,-99.99,,,-99.99,,2013-01-23 15:03:00,
2013-01-23 10:13:00,33.0,4.0,30.38,NE,52,4.0,-999.0,29,-99.99,,,-99.99,,2013-01-23 15:13:00,
2013-01-23 10:23:00,35.0,5.0,30.39,NE,42,1.0,-999.0,28,-99.99,,,-99.99,,2013-01-23 15:23:00,
2013-01-23 10:33:00,36.0,5.0,30.40,NE,37,1.0,-999.0,27,-99.99,,,-99.99,,2013-01-23 15:33:00,
2013-01-23 10:43:00,36.0,5.0,30.40,NE,37,1.0,-999.0,27,-99.99,,,-99.99,,2013-01-23 15:43:00,
2013-01-23 10:53:00,37.0,6.0,30.39,NNE,32,1.0,-999.0,27,-99.99,,,-99.99,,2013-01-23 15:53:00,
2013-01-23 11:03:00,37.0,5.0,30.39,NNE,23,2.0,-999.0,26,-99.99,,,-99.99,,2013-01-23 16:03:00,
2013-01-23 11:12:00,37.0,5.0,30.39,NNE,23,2.0,-999.0,26,-99.99,,,-99.99,,2013-01-23 16:12:00,
2013-01-23 11:23:00,38.0,5.0,30.39,NE,41,2.0,-999.0,25,-99.99,,,-99.99,,2013-01-23 16:23:00,
2013-01-23 11:33:00,39.0,5.0,30.38,NE,40,0.0,-999.0,24,-99.99,,,-99.99,,2013-01-23 16:33:00,
2013-01-23 11:42:00,39.0,5.0,30.38,NE,40,0.0,-999.0,24,-99.99,,,-99.99,,2013-01-23 16:42:00,
2013-01-23 11:52:00,40.0,4.0,30.37,NE,37,1.0,-999.0,22,-99.99,,,-99.99,,2013-01-23 16:52:00,
2013-01-23 12:03:00,41.0,4.0,30.37,NE,37,0.0,-999.0,21,-99.99,,,-99.99,,2013-01-23 17:03:00,
2013-01-23 12:12:00,41.0,4.0,30.37,NE,37,0.0,-999.0,21,-99.99,,,-99.99,,2013-01-23 17:12:00,
2013-01-23 12:23:00,41.0,4.0,30.36,NE,35,1.0,-999.0,21,-99.99,,,-99.99,,2013-01-23 17:23:00,
2013-01-23 12:34:00,43.0,5.0,30.35,NNE,30,0.0,-999.0,20,-99.99,,,-99.99,,2013-01-23 17:34:00,
2013-01-23 12:42:00,43.0,5.0,30.35,NNE,30,0.0,-999.0,20,-99.99,,,-99.99,,2013-01-23 17:42:00,
2013-01-23 12:53:00,44.0,7.0,30.34,NNE,28,0.0,-999.0,21,-99.99,,,-99.99,,2013-01-23 17:53:00,
2013-01-23 13:04:00,43.0,6.0,30.33,NNE,31,1.0,-999.0,21,-99.99,,,-99.99,,2013-01-23 18:04:00,
2013-01-23 13:12:00,43.0,6.0,30.33,NNE,31,1.0,-999.0,21,-99.99,,,-99.99,,2013-01-23 18:12:00,
2013-01-23 13:23:00,44.0,6.0,30.32,NW,313,1.0,-999.0,20,-99.99,,,-99.99,,2013-01-23 18:23:00,
2013-01-23 13:33:00,44.0,6.0,30.32,NW,313,1.0,-999.0,20,-99.99,,,-99.99,,2013-01-23 18:33:00,
2013-01-23 13:43:00,45.0,6.0,30.31,NW,311,1.0,-999.0,20,-99.99,,,-99.99,,2013-01-23 18:43:00,
2013-01-23 13:53:00,44.0,8.0,30.30,NW,304,2.0,-999.0,22,-99.99,,,-99.99,,2013-01-23 18:53:00,
2013-01-23 14:03:00,45.0,8.0,30.29,NNW,332,1.0,-999.0,22,-99.99,,,-99.99,,2013-01-23 19:03:00,
2013-01-23 14:13:00,45.0,8.0,30.29,NNW,332,1.0,-999.0,22,-99.99,,,-99.99,,2013-01-23 19:13:00,
2013-01-23 14:23:00,45.0,7.0,30.29,WNW,302,2.0,-999.0,21,-99.99,,,-99.99,,2013-01-23 19:23:00,
2013-01-23 14:33:00,44.0,12.0,30.28,South,179,1.0,-999.0,27,-99.99,,,-99.99,,2013-01-23 19:33:00,
2013-01-23 14:43:00,44.0,12.0,30.28,South,179,1.0,-999.0,27,-99.99,,,-99.99,,2013-01-23 19:43:00,
2013-01-23 14:53:00,44.0,12.0,30.27,SE,137,3.0,-999.0,27,-99.99,,,-99.99,,2013-01-23 19:53:00,
2013-01-23 15:03:00,44.0,13.0,30.27,ESE,120,2.0,-999.0,28,-99.99,,,-99.99,,2013-01-23 20:03:00,
2013-01-23 15:13:00,44.0,13.0,30.27,ESE,120,2.0,-999.0,28,-99.99,,,-99.99,,2013-01-23 20:13:00,
2013-01-23 15:23:00,44.0,13.0,30.26,South,171,3.0,-999.0,28,-99.99,,,-99.99,,2013-01-23 20:23:00,
2013-01-23 15:33:00,44.0,15.0,30.26,SE,128,2.0,-999.0,30,-99.99,,,-99.99,,2013-01-23 20:33:00,
2013-01-23 15:43:00,44.0,15.0,30.26,SE,128,2.0,-999.0,30,-99.99,,,-99.99,,2013-01-23 20:43:00,
2013-01-23 15:53:00,43.0,14.0,30.26,SSE,147,3.0,-999.0,30,-99.99,,,-99.99,,2013-01-23 20:53:00,
2013-01-23 16:03:00,43.0,14.0,30.26,SSE,152,2.0,-999.0,30,-99.99,,,-99.99,,2013-01-23 21:03:00,
2013-01-23 16:12:00,43.0,14.0,30.26,SSE,152,2.0,-999.0,30,-99.99,,,-99.99,,2013-01-23 21:12:00,
2013-01-23 16:23:00,43.0,14.0,30.26,SE,136,3.0,-999.0,30,-99.99,,,-99.99,,2013-01-23 21:23:00,
2013-01-23 16:33:00,44.0,15.0,30.26,SE,138,3.0,-999.0,31,-99.99,,,-99.99,,2013-01-23 21:33:00,
2013-01-23 16:43:00,44.0,15.0,30.26,SE,138,3.0,-999.0,31,-99.99,,,-99.99,,2013-01-23 21:43:00,
2013-01-23 16:52:00,44.0,15.0,30.26,SE,140,1.0,-999.0,31,-99.99,,,-99.99,,2013-01-23 21:52:00,
2013-01-23 17:03:00,43.0,16.0,30.26,SE,136,1.0,-999.0,33,-99.99,,,-99.99,,2013-01-23 22:03:00,
2013-01-23 17:12:00,43.0,16.0,30.26,SE,136,1.0,-999.0,33,-99.99,,,-99.99,,2013-01-23 22:12:00,
2013-01-23 17:23:00,43.0,17.0,30.26,SE,133,1.0,-999.0,35,-99.99,,,-99.99,,2013-01-23 22:23:00,
2013-01-23 17:33:00,42.0,18.0,30.25,SSE,158,0.0,-999.0,37,-99.99,,,-99.99,,2013-01-23 22:33:00,
2013-01-23 17:42:00,42.0,18.0,30.25,SSE,158,0.0,-999.0,37,-99.99,,,-99.99,,2013-01-23 22:42:00,
2013-01-23 17:53:00,42.0,19.0,30.26,SSE,158,0.0,-999.0,40,-99.99,,,-99.99,,2013-01-23 22:53:00,
2013-01-23 18:03:00,41.0,20.0,30.26,SSE,158,0.0,-999.0,42,-99.99,,,-99.99,,2013-01-23 23:03:00,
2013-01-23 18:13:00,41.0,20.0,30.26,SSE,158,0.0,-999.0,42,-99.99,,,-99.99,,2013-01-23 23:13:00,
2013-01-23 18:23:00,40.0,20.0,30.26,SSE,158,0.0,-999.0,45,-99.99,,,-99.99,,2013-01-23 23:23:00,
2013-01-23 18:33:00,39.0,21.0,30.26,SSE,158,0.0,-999.0,48,-99.99,,,-99.99,,2013-01-23 23:33:00,
2013-01-23 18:43:00,39.0,21.0,30.26,SSE,158,0.0,-999.0,48,-99.99,,,-99.99,,2013-01-23 23:43:00,
2013-01-23 18:53:00,39.0,22.0,30.26,SSE,158,0.0,-999.0,51,-99.99,,,-99.99,,2013-01-23 23:53:00,
2013-01-23 19:03:00,38.0,22.0,30.25,SSE,158,0.0,-999.0,53,-99.99,,,-99.99,,2013-01-24 00:03:00,
2013-01-23 19:12:00,38.0,22.0,30.25,SSE,158,0.0,-999.0,53,-99.99,,,-99.99,,2013-01-24 00:12:00,
2013-01-23 19:22:00,37.0,23.0,30.24,SSE,158,0.0,-999.0,56,-99.99,,,-99.99,,2013-01-24 00:22:00,
2013-01-23 19:32:00,37.0,23.0,30.24,SSE,158,0.0,-999.0,57,-99.99,,,-99.99,,2013-01-24 00:32:00,
2013-01-23 19:43:00,37.0,23.0,30.24,SSE,158,0.0,-999.0,57,-99.99,,,-99.99,,2013-01-24 00:43:00,
2013-01-23 19:53:00,38.0,24.0,30.24,SSE,158,0.0,-999.0,57,-99.99,,,-99.99,,2013-01-24 00:53:00,
2013-01-23 20:03:00,38.0,25.0,30.23,SSE,158,0.0,-999.0,59,-99.99,,,-99.99,,2013-01-24 01:03:00,
2013-01-23 20:12:00,38.0,25.0,30.23,SSE,158,0.0,-999.0,59,-99.99,,,-99.99,,2013-01-24 01:12:00,
2013-01-23 20:23:00,37.0,25.0,30.23,SSE,158,0.0,-999.0,61,-99.99,,,-99.99,,2013-01-24 01:23:00,
2013-01-23 20:33:00,36.0,25.0,30.23,SSE,158,0.0,-999.0,64,-99.99,,,-99.99,,2013-01-24 01:33:00,
2013-01-23 20:42:00,36.0,25.0,30.23,SSE,158,0.0,-999.0,64,-99.99,,,-99.99,,2013-01-24 01:42:00,
2013-01-23 20:53:00,35.0,25.0,30.22,SSE,158,0.0,-999.0,66,-99.99,,,-99.99,,2013-01-24 01:53:00,
2013-01-23 21:02:00,35.0,26.0,30.21,SSE,158,0.0,-999.0,68,-99.99,,,-99.99,,2013-01-24 02:02:00,
2013-01-23 21:12:00,35.0,26.0,30.21,SSE,158,0.0,-999.0,68,-99.99,,,-99.99,,2013-01-24 02:12:00,
2013-01-23 21:22:00,35.0,26.0,30.21,SSE,158,0.0,-999.0,70,-99.99,,,-99.99,,2013-01-24 02:22:00,
2013-01-23 21:33:00,35.0,27.0,30.21,SSE,158,0.0,-999.0,71,-99.99,,,-99.99,,2013-01-24 02:33:00,
2013-01-23 21:42:00,35.0,27.0,30.21,SSE,158,0.0,-999.0,71,-99.99,,,-99.99,,2013-01-24 02:42:00,
2013-01-23 21:52:00,35.0,27.0,30.21,SSE,158,0.0,-999.0,71,-99.99,,,-99.99,,2013-01-24 02:52:00,
2013-01-23 22:02:00,34.0,27.0,30.21,SSE,158,0.0,-999.0,76,-99.99,,,-99.99,,2013-01-24 03:02:00,
2013-01-23 22:12:00,34.0,27.0,30.21,SSE,158,0.0,-999.0,76,-99.99,,,-99.99,,2013-01-24 03:12:00,
2013-01-23 22:22:00,35.0,28.0,30.20,SSE,158,0.0,-999.0,76,-99.99,,,-99.99,,2013-01-24 03:22:00,
2013-01-23 22:33:00,35.0,29.0,30.20,SSE,158,0.0,-999.0,77,-99.99,,,-99.99,,2013-01-24 03:33:00,
2013-01-23 22:43:00,35.0,29.0,30.20,SSE,158,0.0,-999.0,77,-99.99,,,-99.99,,2013-01-24 03:43:00,
2013-01-23 22:53:00,35.0,29.0,30.20,SSE,158,0.0,-999.0,77,-99.99,,,-99.99,,2013-01-24 03:53:00,
2013-01-23 23:02:00,38.0,32.0,30.18,SSE,158,0.0,-999.0,78,-99.99,,,-99.99,,2013-01-24 04:02:00,
2013-01-23 23:12:00,38.0,32.0,30.18,SSE,158,0.0,-999.0,78,-99.99,,,-99.99,,2013-01-24 04:12:00,
2013-01-23 23:22:00,41.0,34.0,30.18,SSE,160,0.0,-999.0,75,-99.99,,,-99.99,,2013-01-24 04:22:00,
2013-01-23 23:33:00,41.0,33.0,30.17,SSE,160,0.0,-999.0,73,-99.99,,,-99.99,,2013-01-24 04:33:00,
2013-01-23 23:42:00,41.0,33.0,30.17,SSE,160,0.0,-999.0,73,-99.99,,,-99.99,,2013-01-24 04:42:00,
2013-01-23 23:53:00,42.0,34.0,30.16,SSE,161,1.0,-999.0,72,-99.99,,,-99.99,,2013-01-24 04:53:00,